CZ-3B DEB, 40162

Orbit data source: Space-Track

CZ-3B DEB, 40162 is space debris in HEO originally from a launch on Sat, 04 Sep 2010 UTC launched from the Xichang Space Center, China (XSC). Debris objects in space refer to the collection of defunct objects orbiting the Earth. Examples of debris include non-operational satellites, rocket bodies, and fragments generated from explosions, collisions, or faulty payload assembly.

Loading next visibility...
Identifier
40162, 2010-042P
Orbit
HEO
Last TLE update
1 day ago
Origin
Manufacturer
CALT
Mission
Spacecraft
Bus & Motor
Unknown
Mass
Unknown
Launch date (UTC)
2010-09-04 (15 years ago)
Launch vehicle
Unknown
Launch site
Xichang Space Center, China (XSC)
Object type
Payload
Rocket body
Debris
Shape & HBR
Unknown
Radar Cross Section
Medium (>0.1 m² and <1 m²)

Expand to show TLE details & history

TLE from 1 day ago
0 CZ-3B DEB
1 40162U 10042P   25140.59455931 -.00000060  00000-0  00000-0 0  9990
2 40162  27.4024 350.0937 7203081 200.8822  99.6467  1.92015744 80668
Epoch: 2025-05-20T14:16Z
TLE epoch observation values (Epoch: 2025-05-20T14:16:09.924Z)
Latitude
-0.00013°
Longitude
-102.44499°
Altitude
33,811.401 km
Speed
2.293 km/s
True Right ascension
23h 20m 20s
True Declination
0° 00' 00"
Sunlit
Object was in daylight at epoch
Visualization orbit readout
Latitude
26.57987°
Longitude
2.85699°
Altitude
8,159.05 km
Speed
6.346 km/s
Apparent Right ascension
05h 12m 35s
Apparent Declination
14° 25' 18"
Sunlit
Object is in daylight
Visualization observer readout
Local Sidereal Time
08:40:09
Azimuth
255.824° W
Elevation
38.187°
Doppler factor
1
Orbital elements
Apogee altitude
40,665.701 km
Perigee altitude
1,270.365 km
Semi-major axis
27,346.17 km
Eccentricity
0.72031
Inclination
27.4024°
RAAN
350.0937°
Arg. of periapsis
200.8822°
True anomaly
Unknown
Mean anomaly
99.6467°
Eccentric anomaly
Unknown
Mean motion
0.47995 °/min
Orbital period
750.07 mins
BSTAR
0
Loading maneuver chart data...
Loading SW <> Apogee altitude chart data...
Loading historical data...
Loading historical data...
Loading historical data...
Loading historical data...
Loading historical data...
Loading historical data...
Loading historical data...

CZ-3B DEB Visibility forecast

Observer location: undefined°, undefined°

Span
Click to sort rows by Start time (UTC) header in descending order
Start Az.
Max El. time (UTC)
Max El. Az.
Max El.
End time (UTC)
End Az.
26 mins2025-05-21 23:41:10.913Z255.747° W2025-05-21 23:54:10.913Z224.771° SW34.728°2025-05-22 00:07:10.913Z157.009° SSE
585 mins2025-05-22 13:56:10.913Z211.2° SW2025-05-22 16:38:10.913Z225.33° WSW29.942°2025-05-22 23:41:10.913Z282.375° WNW
|